Regional Weather Roundup
Issued by NWS

Home | Current Version | Previous Version | Text Only | Print | Product List | Glossary Off
Versions: 1 2 3 4 5 6 7 8 9 10 11 12 13 14 15 16 17 18 19 20 21 22 23 24 25 26 27 28 29 30 31 32 33 34 35 36 37 38 39 40 41 42 43 44 45 46 47 48 49 50

000
ASUS43 KFSD 211910
RWRSD

WEATHER ROUNDUP FOR SOUTH DAKOTA
NATIONAL WEATHER SERVICE SIOUX FALLS SD
100 PM CST TUE NOV 21 2017

NOTE: "FAIR" INDICATES FEW OR NO CLOUDS BELOW 12,000 FEET WITH NO
SIGNIFICANT WEATHER AND/OR OBSTRUCTIONS TO VISIBILITY.


SDZ001>005-009-010-012>017-212000-
NORTHWEST AND NORTH CENTRAL SOUTH DAKOTA

CITY           SKY/WX    TMP DP  RH WIND       PRES   REMARKS
BUFFALO          N/A     27   7  42 W13       30.24F WCI  16
FAITH            N/A     21   1  41 NW15      30.34S WCI   8
MOBRIDGE       SUNNY     21   5  50 NW15      30.33F WCI   8
$$

SDZ012>016-024>037-041>051-057-063-072>074-212000-
SOUTHWEST AND SOUTH CENTRAL SOUTH DAKOTA

CITY           SKY/WX    TMP DP  RH WIND       PRES   REMARKS
RAPID CTY ARPT SUNNY     31  20  63 VRB5      30.32F WCI  26
PIERRE         SUNNY     23   9  55 NW14      30.37F WCI  11
CUSTER         CLOUDY    35  20  54 W12       30.20F WCI  27
ELLSWORTH AFB  SUNNY     30  21  69 NE6       30.30F WCI  24
PHILIP         SUNNY     25   8  48 NW16G23   30.38S WCI  12
PINE RIDGE     CLOUDY    35  24  64 SW6       30.32F
SPEARFISH      FAIR      32  19  59 NW9       30.28S WCI  24
WINNER         FAIR      21  11  65 NW15      30.38S WCI   8
$$

SDZ004>011-016>023-039-040-212000-
NORTHEAST SOUTH DAKOTA

CITY           SKY/WX    TMP DP  RH WIND       PRES   REMARKS
ABERDEEN       SUNNY     24   6  46 NW16      30.36R WCI  11
WATERTOWN      SUNNY     22   7  52 N16G26    30.27R WCI   8
BROOKINGS      SUNNY     23   9  55 N18G25    30.26R WCI   9
SISSETON         N/A     24   9  52 NW25G33   30.30R WCI   8
$$

SDZ017-020-022-023-036>040-048>070-212000-
SOUTHEAST SOUTH DAKOTA

CITY           SKY/WX    TMP DP  RH WIND       PRES   REMARKS
SIOUX FALLS    SUNNY     27  10  49 NW22G28   30.28R WCI  13
HURON          SUNNY     25   7  46 N20G28    30.35S WCI  11
CHAMBERLAIN    SUNNY     25   9  50 NW16      30.38S WCI  12
MITCHELL       SUNNY     25   8  48 N17G28    30.37R WCI  12
YANKTON        SUNNY     25  10  53 NW22G29   30.33R WCI  10
$$

ABBREVIATIONS USED IN REMARKS
   TC - TEMPERATURE IN CELSIUS
  WCI - WIND CHILL INDEX
   HX - HEAT INDEX
  VSB - VISIBILITY





USA.gov is the U.S. government's official web portal to all federal, state and local government web resources and services.